FW3757 Weather Reports


Display with metric or nautical units.
time (UTC)temp
F
wind
direction
speed
MPH
gust
MPH
rain 1hr
in
rain 24hr
in
rain mn
in
humidity
%
barometer
mb
20191019225032 65 71 0.0 0.0 0.00 0.00 0.00 42 987.9
20191019224614 65 71 0.0 0.0 0.00 0.00 0.00 43 987.9
20191019224031 65 71 0.0 1.0 0.00 0.00 0.00 43 987.9
20191019223533 65 71 0.0 1.0 0.00 0.00 0.00 43 987.9
20191019223056 66 71 0.0 1.0 0.00 0.00 0.00 42 987.9
20191019222531 66 71 0.0 1.0 0.00 0.00 0.00 42 987.9
20191019222033 66 71 0.0 1.0 0.00 0.00 0.00 41 987.9
20191019221600 66 71 0.0 1.0 0.00 0.00 0.00 41 987.9
20191019221032 66 71 0.0 1.0 0.00 0.00 0.00 41 987.9
20191019220546 67 71 0.0 1.0 0.00 0.00 0.00 39 987.9
20191019220050 68 71 0.0 1.0 0.00 0.00 0.00 40 987.9
20191019215530 68 70 0.0 3.0 0.00 0.00 0.00 42 987.9
20191019215030 69 97 0.0 3.0 0.00 0.00 0.00 37 987.9
20191019214616 69 35 0.0 3.0 0.00 0.00 0.00 40 987.9
20191019214032 68 65 0.0 3.0 0.00 0.00 0.00 39 987.9
20191019213530 70 113 0.0 3.0 0.00 0.00 0.00 37 987.9
20191019213041 70 120 1.0 3.0 0.00 0.00 0.00 38 987.9
20191019212533 69 151 0.0 4.0 0.00 0.00 0.00 40 987.9
20191019212032 69 192 0.0 4.0 0.00 0.00 0.00 39 987.9
20191019211642 70 78 0.0 5.0 0.00 0.00 0.00 38 987.9
20191019211037 70 272 1.0 5.0 0.00 0.00 0.00 41 987.9
20191019210537 70 165 2.0 6.0 0.00 0.00 0.00 38 987.9
20191019210120 70 186 3.0 7.0 0.00 0.00 0.00 39 987.9
20191019205527 70 184 2.0 5.0 0.00 0.00 0.00 37 987.9
20191019205027 71 187 0.0 4.0 0.00 0.00 0.00 36 987.9
20191019204558 71 322 1.0 4.0 0.00 0.00 0.00 36 987.9
20191019204038 71 197 0.0 3.0 0.00 0.00 0.00 37 987.9
20191019203535 71 82 1.0 3.0 0.00 0.00 0.00 35 987.9
20191019203107 72 79 0.0 3.0 0.00 0.00 0.00 35 987.9
20191019202526 71 224 2.0 4.0 0.00 0.00 0.00 45 987.9
20191019202026 71 355 1.0 5.0 0.00 0.00 0.00 39 987.9
20191019201552 71 163 3.0 5.0 0.00 0.00 0.00 40 987.9
20191019201024 70 178 0.0 3.0 0.00 0.00 0.00 39 987.9
20191019200533 69 135 0.0 2.0 0.00 0.00 0.00 39 987.9
20191019200047 69 63 0.0 3.0 0.00 0.00 0.00 39 987.9
20191019195528 70 81 0.0 3.0 0.00 0.00 0.00 39 987.9
20191019195030 69 210 1.0 2.0 0.00 0.00 0.00 41 987.9
20191019194539 69 166 0.0 3.0 0.00 0.00 0.00 41 987.9
20191019194029 68 166 1.0 3.0 0.00 0.00 0.00 41 987.9
20191019193522 68 127 0.0 7.0 0.00 0.00 0.00 38 987.9
20191019193028 68 219 2.0 7.0 0.00 0.00 0.00 36 987.9
20191019192523 69 185 2.0 8.0 0.00 0.00 0.00 36 987.9
20191019192033 68 219 4.0 8.0 0.00 0.00 0.00 35 987.9
20191019191544 68 248 2.0 5.0 0.00 0.00 0.00 38 987.9
20191019191021 68 190 1.0 5.0 0.00 0.00 0.00 40 987.9
20191019190522 68 186 2.0 4.0 0.00 0.00 0.00 36 987.9
20191019185521 68 170 1.0 5.0 0.00 0.00 0.00 35 987.9
20191019185021 68 260 1.0 5.0 0.00 0.00 0.00 36 987.9
20191019184604 68 206 1.0 5.0 0.00 0.00 0.00 35 987.9
20191019184019 68 167 1.0 5.0 0.00 0.00 0.00 39 987.9
20191019183519 68 183 1.0 7.0 0.00 0.00 0.00 38 987.9
20191019183033 67 194 2.0 6.0 0.00 0.00 0.00 38 987.9
20191019182518 68 170 2.0 4.0 0.00 0.00 0.00 38 987.9
20191019182021 67 118 0.0 3.0 0.00 0.00 0.00 43 987.9
20191019181529 66 180 0.0 3.0 0.00 0.00 0.00 41 987.9
20191019181024 66 42 0.0 6.0 0.00 0.00 0.00 42 987.9
20191019180517 67 44 0.0 6.0 0.00 0.00 0.00 42 987.9
20191019180038 68 34 0.0 5.0 0.00 0.00 0.00 43 987.9
20191019175516 66 80 2.0 5.0 0.00 0.00 0.00 39 987.9
20191019175025 66 191 2.0 5.0 0.00 0.00 0.00 45 987.9
20191019174521 67 80 0.0 3.0 0.00 0.00 0.00 42 987.9
20191019174021 65 237 1.0 5.0 0.00 0.00 0.00 42 987.9
20191019173520 66 67 1.0 5.0 0.00 0.00 0.00 43 987.9
20191019173054 65 187 1.0 6.0 0.00 0.00 0.00 44 987.9
20191019172511 64 194 1.0 5.0 0.00 0.00 0.00 46 987.9
20191019172014 63 232 2.0 5.0 0.00 0.00 0.00 46 987.9
20191019171515 63 223 2.0 5.0 0.00 0.00 0.00 48 987.9
20191019171011 63 63 0.0 5.0 0.00 0.00 0.00 46 987.9
20191019170509 63 214 1.0 6.0 0.00 0.00 0.00 53 987.9
20191019170016 62 171 2.0 5.0 0.00 0.00 0.00 52 987.9
20191019165508 61 253 1.0 5.0 0.00 0.00 0.00 51 987.9
20191019165008 61 168 1.0 5.0 0.00 0.00 0.00 54 987.9
20191019164509 61 68 1.0 3.0 0.00 0.00 0.00 56 987.9
20191019164011 61 130 0.0 5.0 0.00 0.00 0.00 52 987.9
20191019163504 60 146 0.0 5.0 0.00 0.00 0.00 56 987.9
20191019163005 59 178 2.0 5.0 0.00 0.00 0.00 58 987.9
20191019162506 58 184 1.0 4.0 0.00 0.00 0.00 55 987.9
20191019162003 57 204 0.0 5.0 0.00 0.00 0.00 58 987.9
20191019161726 57 204 1.0 6.0 0.00 0.00 0.00 58 987.9
20191019161101 57 204 3.0 6.0 0.00 0.00 0.00 57 987.9
20191019161003 57 191 3.0 6.0 0.00 0.00 0.00 56 987.9
20191019160600 57 213 3.0 6.0 0.00 0.00 0.00 56 987.9
20191019160236 57 177 0.0 5.0 0.00 0.00 0.00 58 987.9
20191019155558 56 178 2.0 5.0 0.00 0.00 0.00 60 987.9
20191019155109 56 182 2.0 5.0 0.00 0.00 0.00 59 987.9
20191019154715 56 191 2.0 5.0 0.00 0.00 0.00 62 987.9
20191019154055 55 195 2.0 4.0 0.00 0.00 0.00 61 987.9
20191019153557 54 86 0.0 6.0 0.00 0.00 0.00 63 987.9
20191019153150 54 186 2.0 5.0 0.00 0.00 0.00 62 987.9
20191019152552 53 196 2.0 6.0 0.00 0.00 0.00 63 987.9
20191019152051 53 173 2.0 6.0 0.00 0.00 0.00 62 987.9
20191019151621 53 190 3.0 5.0 0.00 0.00 0.00 66 987.9
20191019151051 52 207 3.0 5.0 0.00 0.00 0.00 64 987.9
20191019150547 52 189 2.0 6.0 0.00 0.00 0.00 66 987.9
20191019150135 51 180 2.0 6.0 0.00 0.00 0.00 68 987.9
20191019145545 50 204 2.0 5.0 0.00 0.00 0.00 66 987.9
20191019145050 50 170 2.0 4.0 0.00 0.00 0.00 68 987.9
20191019144655 49 171 0.0 5.0 0.00 0.00 0.00 69 987.9
20191019144042 49 178 2.0 5.0 0.00 0.00 0.00 69 987.9
20191019143549 49 183 1.0 3.0 0.00 0.00 0.00 69 987.9
20191019143107 48 174 0.0 4.0 0.00 0.00 0.00 71 987.9
20191019142539 48 174 0.0 4.0 0.00 0.00 0.00 70 987.9
20191019142038 47 163 1.0 5.0 0.00 0.00 0.00 71 987.9
20191019141602 47 207 1.0 5.0 0.00 0.00 0.00 72 987.9
20191019141034 46 183 2.0 5.0 0.00 0.00 0.00 72 987.9
20191019140547 46 207 2.0 5.0 0.00 0.00 0.00 73 987.9
20191019140105 46 210 3.0 5.0 0.00 0.00 0.00 73 987.9
20191019135535 46 202 2.0 4.0 0.00 0.00 0.00 75 987.9
20191019135034 45 68 0.0 1.0 0.00 0.00 0.00 76 987.9
20191019134537 45 68 0.0 1.0 0.00 0.00 0.00 77 987.9
20191019134038 44 68 0.0 1.0 0.00 0.00 0.00 78 987.9
20191019133533 44 67 0.0 1.0 0.00 0.00 0.00 79 987.9
20191019133103 43 67 0.0 2.0 0.00 0.00 0.00 79 987.9
20191019132529 43 67 0.0 2.0 0.00 0.00 0.00 80 987.9
20191019132032 43 67 0.0 1.0 0.00 0.00 0.00 82 987.9
20191019131629 42 67 0.0 1.0 0.00 0.00 0.00 84 987.9
20191019131028 42 67 0.0 1.0 0.00 0.00 0.00 87 987.9
20191019130528 41 67 0.0 0.0 0.00 0.00 0.00 88 987.9
20191019130137 41 67 0.0 0.0 0.00 0.00 0.00 89 987.9
20191019125528 40 67 0.0 0.0 0.00 0.00 0.00 89 987.9
20191019125033 40 67 0.0 0.0 0.00 0.00 0.00 89 987.9
20191019124620 39 67 0.0 0.0 0.00 0.00 0.00 89 987.9
20191019124025 39 67 0.0 0.0 0.00 0.00 0.00 89 987.9
20191019123525 39 67 0.0 0.0 0.00 0.00 0.00 89 987.9
20191019123122 39 67 0.0 0.0 0.00 0.00 0.00 89 987.9
20191019122524 39 67 0.0 1.0 0.00 0.00 0.00 89 987.9
20191019122027 39 67 0.0 1.0 0.00 0.00 0.00 89 987.9
20191019121619 39 67 0.0 0.0 0.00 0.00 0.00 89 987.9
20191019121025 38 67 0.0 0.0 0.00 0.00 0.00 89 987.9
20191019120521 38 67 0.0 1.0 0.00 0.00 0.00 89 987.9
20191019115520 38 67 0.0 0.0 0.00 0.00 0.00 89 987.9
20191019115020 38 67 0.0 1.0 0.00 0.00 0.00 89 987.9
20191019114610 38 67 0.0 1.0 0.00 0.00 0.00 89 987.9
20191019114019 38 67 0.0 1.0 0.00 0.00 0.00 89 987.9
20191019113518 38 67 0.0 0.0 0.00 0.00 0.00 89 987.9
20191019113111 38 67 0.0 0.0 0.00 0.00 0.00 89 987.9
20191019112524 38 67 0.0 0.0 0.00 0.00 0.00 88 987.9
20191019112019 38 67 0.0 0.0 0.00 0.00 0.00 88 987.9
20191019111615 38 67 0.0 0.0 0.00 0.00 0.00 88 987.9
20191019111017 38 67 0.0 0.0 0.00 0.00 0.00 88 987.9
20191019110519 38 67 0.0 0.0 0.00 0.00 0.00 87 987.9
20191019110042 38 67 0.0 0.0 0.00 0.00 0.00 87 987.9
20191019105515 38 67 0.0 0.0 0.00 0.00 0.00 87 987.9
20191019105019 38 67 0.0 0.0 0.00 0.00 0.00 86 987.9
20191019104526 39 67 0.0 0.0 0.00 0.00 0.00 86 987.9
20191019104013 39 67 0.0 0.0 0.00 0.00 0.00 86 987.9
20191019103513 39 67 0.0 0.0 0.00 0.00 0.00 86 987.9
20191019103028 39 67 0.0 0.0 0.00 0.00 0.00 85 987.9
20191019102517 39 67 0.0 0.0 0.00 0.00 0.00 85 987.9
20191019102016 39 67 0.0 0.0 0.00 0.00 0.00 85 987.9
20191019101518 39 67 0.0 0.0 0.00 0.00 0.00 85 987.9
20191019101010 40 67 0.0 0.0 0.00 0.00 0.00 85 987.9
20191019100510 39 67 0.0 0.0 0.00 0.00 0.00 84 987.9
20191019100020 39 67 0.0 0.0 0.00 0.00 0.00 84 987.9
20191019095512 39 67 0.0 0.0 0.00 0.00 0.00 83 987.9
20191019095009 40 67 0.0 0.0 0.00 0.00 0.00 83 987.9
20191019094515 39 67 0.0 0.0 0.00 0.00 0.00 82 987.9
20191019094007 40 67 0.0 0.0 0.00 0.00 0.00 82 987.9
20191019093512 40 67 0.0 0.0 0.00 0.00 0.00 82 987.9
20191019093018 40 67 0.0 0.0 0.00 0.00 0.00 82 987.9
20191019092509 40 67 0.0 0.0 0.00 0.00 0.00 82 987.9
20191019092009 40 67 0.0 0.0 0.00 0.00 0.00 81 987.9
20191019091509 41 67 0.0 1.0 0.00 0.00 0.00 82 987.9
20191019091010 41 67 0.0 1.0 0.00 0.00 0.00 82 987.9
20191019090505 41 67 0.0 0.0 0.00 0.00 0.00 82 987.9
20191019090009 40 67 0.0 0.0 0.00 0.00 0.00 81 987.9
20191019085505 40 67 0.0 0.0 0.00 0.00 0.00 81 987.9
20191019085003 40 67 0.0 1.0 0.00 0.00 0.00 81 987.9
20191019084519 40 67 0.0 1.0 0.00 0.00 0.00 81 987.9
20191019084006 40 67 0.0 1.0 0.00 0.00 0.00 81 987.9
20191019083506 40 67 0.0 0.0 0.00 0.00 0.00 79 987.9
20191019083002 41 67 0.0 0.0 0.00 0.00 0.00 79 987.9
20191019082505 41 67 0.0 0.0 0.00 0.00 0.00 79 987.9
20191019082005 41 67 0.0 0.0 0.00 0.00 0.00 79 987.9
20191019081502 41 67 0.0 0.0 0.00 0.00 0.00 79 987.9
20191019081002 41 67 0.0 1.0 0.00 0.00 0.00 78 987.9
20191019080600 41 67 0.0 1.0 0.00 0.00 0.00 78 987.9
20191019080212 41 67 0.0 2.0 0.00 0.00 0.00 78 987.9
20191019075559 42 67 0.0 1.0 0.00 0.00 0.00 77 987.9
20191019075103 42 67 0.0 1.0 0.00 0.00 0.00 77 987.9
20191019074741 42 67 0.0 1.0 0.00 0.00 0.00 77 987.9
20191019074057 42 67 0.0 1.0 0.00 0.00 0.00 77 987.9
20191019073607 42 67 0.0 1.0 0.00 0.00 0.00 76 987.9
20191019073238 42 67 0.0 1.0 0.00 0.00 0.00 77 987.9
20191019072557 42 67 0.0 1.0 0.00 0.00 0.00 77 987.9
20191019072056 42 65 0.0 2.0 0.00 0.00 0.00 78 987.9
20191019071815 42 355 0.0 1.0 0.00 0.00 0.00 78 987.9
20191019071058 42 347 0.0 1.0 0.00 0.00 0.00 78 987.9
20191019070556 42 347 0.0 1.0 0.00 0.00 0.00 78 987.9
20191019070211 42 347 0.0 1.0 0.00 0.00 0.00 78 987.9
20191019065603 42 336 0.0 1.0 0.00 0.00 0.00 78 987.9
20191019065055 42 336 0.0 1.0 0.00 0.00 0.00 77 987.9
20191019064700 42 336 0.0 1.0 0.00 0.00 0.00 77 987.9
20191019064105 42 336 0.0 0.0 0.00 0.00 0.00 78 987.9
20191019063556 42 336 0.0 0.0 0.00 0.00 0.00 78 987.9
20191019063136 42 336 0.0 0.0 0.00 0.00 0.00 78 987.9
20191019062552 42 336 0.0 0.0 0.00 0.00 0.00 79 987.9
20191019062052 42 336 0.0 0.0 0.00 0.00 0.00 78 987.9
20191019061642 42 336 0.0 0.0 0.00 0.00 0.00 78 987.9
20191019061051 42 336 0.0 1.0 0.00 0.00 0.00 78 987.9
20191019060550 42 336 0.0 1.0 0.00 0.00 0.00 77 987.9
20191019060145 43 336 0.0 0.0 0.00 0.00 0.00 76 987.9
20191019055549 43 336 0.0 1.0 0.00 0.00 0.00 76 987.9
20191019055049 43 336 0.0 1.0 0.00 0.00 0.00 76 987.9
20191019054630 43 336 0.0 0.0 0.00 0.00 0.00 75 987.9
20191019054052 43 336 0.0 1.0 0.00 0.00 0.00 75 987.9
20191019053552 43 336 0.0 1.0 0.00 0.00 0.00 75 987.9
20191019053143 44 336 0.0 0.0 0.00 0.00 0.00 75 987.9
20191019052545 44 336 0.0 0.0 0.00 0.00 0.00 75 987.9
20191019052050 44 336 0.0 0.0 0.00 0.00 0.00 74 987.9
20191019051603 44 336 0.0 0.0 0.00 0.00 0.00 74 987.9
20191019051049 44 336 0.0 0.0 0.00 0.00 0.00 74 987.9
20191019050547 44 336 0.0 0.0 0.00 0.00 0.00 73 987.9
20191019050125 44 336 0.0 0.0 0.00 0.00 0.00 74 987.9
20191019045542 44 336 0.0 0.0 0.00 0.00 0.00 73 987.9
20191019045041 44 336 0.0 0.0 0.00 0.00 0.00 74 987.9
20191019044600 44 336 0.0 1.0 0.00 0.00 0.00 74 987.9
20191019044042 44 336 0.0 1.0 0.00 0.00 0.00 74 987.9
20191019043539 45 336 0.0 1.0 0.00 0.00 0.00 74 987.9
20191019043118 45 336 0.0 1.0 0.00 0.00 0.00 73 987.9
20191019042538 45 336 0.0 1.0 0.00 0.00 0.00 73 987.9
20191019042035 46 336 0.0 1.0 0.00 0.00 0.00 73 987.9
20191019041546 46 346 0.0 1.0 0.00 0.00 0.00 73 987.9
20191019041035 46 347 0.0 1.0 0.00 0.00 0.00 72 987.9
20191019040535 46 347 0.0 1.0 0.00 0.00 0.00 72 987.9
20191019040050 46 347 0.0 1.0 0.00 0.00 0.00 73 987.9
20191019035533 46 41 0.0 1.0 0.00 0.00 0.00 72 987.9
20191019035035 46 57 0.0 0.0 0.00 0.00 0.00 71 987.9
20191019034619 46 57 0.0 0.0 0.00 0.00 0.00 73 987.9
20191019034033 46 57 0.0 1.0 0.00 0.00 0.00 74 987.9
20191019033534 46 57 0.0 1.0 0.00 0.00 0.00 74 987.9
20191019033110 46 57 0.0 1.0 0.00 0.00 0.00 74 987.9
20191019032532 46 57 0.0 0.0 0.00 0.00 0.00 74 987.9
20191019032032 46 57 0.0 1.0 0.00 0.00 0.00 74 987.9
20191019031556 46 57 0.0 1.0 0.00 0.00 0.00 74 987.9
20191019031031 46 57 0.0 1.0 0.00 0.00 0.00 74 987.9
20191019030538 46 57 0.0 0.0 0.00 0.00 0.00 73 987.9
20191019030105 47 57 0.0 0.0 0.00 0.00 0.00 72 987.9
20191019025535 46 57 0.0 0.0 0.00 0.00 0.00 71 987.9
20191019025034 47 57 0.0 0.0 0.00 0.00 0.00 70 987.9
20191019024548 47 57 0.0 0.0 0.00 0.00 0.00 69 987.9
20191019024030 47 57 0.0 0.0 0.00 0.00 0.00 68 987.9
20191019023533 47 57 0.0 0.0 0.00 0.00 0.00 66 987.9
20191019023113 47 57 0.0 0.0 0.00 0.00 0.00 65 987.9
20191019022537 47 57 0.0 0.0 0.00 0.00 0.00 66 987.9
20191019022031 47 57 0.0 1.0 0.00 0.00 0.00 65 987.9
20191019021559 47 57 0.0 1.0 0.00 0.00 0.00 65 987.9
20191019021039 48 57 0.0 0.0 0.00 0.00 0.00 64 987.9
20191019020533 48 57 0.0 1.0 0.00 0.00 0.00 63 987.9
20191019020149 48 57 0.0 1.0 0.00 0.00 0.00 64 987.9
20191019015530 49 57 0.0 0.0 0.00 0.00 0.00 63 987.9
20191019015029 49 57 0.0 0.0 0.00 0.00 0.00 63 987.9
20191019014538 49 57 0.0 0.0 0.00 0.00 0.00 63 987.9
20191019014042 49 57 0.0 1.0 0.00 0.00 0.00 63 987.9
20191019013529 49 57 0.0 1.0 0.00 0.00 0.00 62 987.9
20191019013107 49 57 0.0 0.0 0.00 0.00 0.00 61 987.9
20191019012529 49 57 0.0 0.0 0.00 0.00 0.00 61 987.9
20191019012029 50 57 0.0 1.0 0.00 0.00 0.00 60 987.9
20191019011616 49 57 0.0 1.0 0.00 0.00 0.00 60 987.9
20191019011028 50 57 0.0 0.0 0.00 0.00 0.00 61 987.9
20191019010533 49 57 0.0 0.0 0.00 0.00 0.00 60 987.9
20191019010111 50 57 0.0 0.0 0.00 0.00 0.00 58 987.9
20191019005528 50 57 0.0 0.0 0.00 0.00 0.00 59 987.9
20191019005033 50 57 0.0 0.0 0.00 0.00 0.00 58 987.9
20191019004607 50 57 0.0 0.0 0.00 0.00 0.00 58 987.9
20191019004027 50 57 0.0 1.0 0.00 0.00 0.00 59 987.9
20191019003534 50 57 0.0 1.0 0.00 0.00 0.00 59 987.9
20191019003046 51 57 0.0 0.0 0.00 0.00 0.00 58 987.9
20191019002527 51 57 0.0 0.0 0.00 0.00 0.00 57 987.9
20191019002027 51 57 0.0 0.0 0.00 0.00 0.00 57 987.9
20191019001714 52 57 0.0 0.0 0.00 0.00 0.00 56 987.9
20191019001026 52 57 0.0 0.0 0.00 0.00 0.00 56 987.9
20191019000526 51 57 0.0 0.0 0.00 0.00 0.00 56 987.9
20191019000031 51 57 0.0 0.0 0.00 0.00 0.00 56 987.9
20191018235526 51 57 0.0 1.0 0.00 0.00 0.00 57 987.9
20191018235037 52 57 0.0 1.0 0.00 0.00 0.00 55 987.9
20191018234546 52 57 0.0 1.0 0.00 0.00 0.00 55 987.9
20191018234032 52 57 0.0 0.0 0.00 0.00 0.00 55 987.9
20191018233531 52 57 0.0 0.0 0.00 0.00 0.00 55 987.9
20191018233036 53 57 0.0 1.0 0.00 0.00 0.00 54 987.9
20191018232537 53 57 0.0 1.0 0.00 0.00 0.00 54 987.9
20191018232024 53 57 0.0 1.0 0.00 0.00 0.00 54 987.9
20191018231541 53 57 0.0 0.0 0.00 0.00 0.00 53 987.9
20191018231025 54 57 0.0 0.0 0.00 0.00 0.00 53 987.9
20191018230534 54 57 0.0 1.0 0.00 0.00 0.00 52 987.9
20191018230055 55 57 0.0 1.0 0.00 0.00 0.00 51 987.9
20191018225524 55 57 0.0 0.0 0.00 0.00 0.00 52 987.9